When you browse on this site, cookies collect data to enhance your experience and personalize the content and advertising you see.
Visit our Privacy Policy to learn more. By continuing to use the site, you agree to this use of cookies and data.
  • In Deutschland
  • Länderverzeichnis
  • Für 7 Tage
  • Wassertemperatur
  • Satellitenkarten
  • Wetterkarte
  • Widgets
  • user-avatar
    Anmelden

    Stündliche Wetter Kaufbeuren

    Heute, 21 Januar, Montag

    Zeit Temperatur Niederschläge Wind Luftdruck Luftfeuchtigkeit
    00:00 -8°C° 0 mm 1 m/S 700 mmHg 90%
    01:00 -8°C° 0 mm 1 m/S 700 mmHg 91%
    02:00 -7°C° 0 mm 1 m/S 700 mmHg 91%
    03:00 -7°C° 0 mm 1 m/S 700 mmHg 92%
    04:00 -7°C° 0 mm 1 m/S 700 mmHg 92%
    05:00 -7°C° 0 mm 0 m/S 700 mmHg 92%
    06:00 -8°C° 0 mm 0 m/S 700 mmHg 92%
    07:00 -8°C° 0 mm 0 m/S 700 mmHg 92%
    08:00 -7°C° 0 mm 0 m/S 700 mmHg 92%
    09:00 -6°C° 0 mm 0 m/S 701 mmHg 91%
    10:00 -5°C° 0 mm 0 m/S 701 mmHg 91%
    11:00 -4°C° 0 mm 0 m/S 701 mmHg 90%
    12:00 -3°C° 0 mm 0 m/S 701 mmHg 90%
    13:00 -1°C° 0 mm 1 m/S 701 mmHg 90%
    14:00 -1°C° 0 mm 1 m/S 700 mmHg 91%
    15:00 -2°C° 0 mm 0 m/S 700 mmHg 92%
    16:00 -2°C° 0 mm 0 m/S 700 mmHg 93%
    17:00 -3°C° 0 mm 0 m/S 700 mmHg 94%
    18:00 -4°C° 0 mm 0 m/S 700 mmHg 95%
    19:00 -5°C° 0 mm 0 m/S 700 mmHg 96%
    20:00 -5°C° 0 mm 0 m/S 700 mmHg 95%
    21:00 -5°C° 0 mm 0 m/S 701 mmHg 95%
    22:00 -4°C° 0 mm 1 m/S 701 mmHg 95%
    23:00 -4°C° 0 mm 1 m/S 700 mmHg 94%

    Morgen, 22 Januar, Dienstag

    Zeit Temperatur Niederschläge Wind Luftdruck Luftfeuchtigkeit
    00:00 -6°C° 0 mm 1 m/S 700 mmHg 94%
    01:00 -6°C° 0 mm 1 m/S 700 mmHg 94%
    02:00 -7°C° 0 mm 1 m/S 699 mmHg 93%
    03:00 -8°C° 0 mm 1 m/S 699 mmHg 92%
    04:00 -9°C° 0 mm 2 m/S 698 mmHg 91%
    05:00 -10°C° 0 mm 2 m/S 697 mmHg 91%
    06:00 -10°C° 0 mm 2 m/S 697 mmHg 90%
    07:00 -10°C° 0 mm 2 m/S 697 mmHg 89%
    08:00 -8°C° 0 mm 1 m/S 696 mmHg 88%
    09:00 -7°C° 0 mm 1 m/S 696 mmHg 88%
    10:00 -6°C° 0 mm 1 m/S 695 mmHg 87%
    11:00 -3°C° 0 mm 1 m/S 695 mmHg 85%
    12:00 -2°C° 0 mm 1 m/S 694 mmHg 83%
    13:00 -1°C° 0 mm 0 m/S 693 mmHg 81%
    14:00 -2°C° 0 mm 0 m/S 692 mmHg 84%
    15:00 -1°C° 0 mm 1 m/S 692 mmHg 88%
    16:00 -2°C° 0 mm 1 m/S 691 mmHg 92%
    17:00 -3°C° 0 mm 1 m/S 690 mmHg 92%
    18:00 -6°C° 0 mm 1 m/S 690 mmHg 93%
    19:00 -8°C° 0 mm 2 m/S 690 mmHg 93%
    20:00 -8°C° 0 mm 1 m/S 689 mmHg 92%
    21:00 -8°C° 0 mm 1 m/S 689 mmHg 91%
    22:00 -8°C° 0 mm 1 m/S 689 mmHg 90%
    23:00 -8°C° 0 mm 1 m/S 688 mmHg 89%

    übermorgen, 23 Januar, Mittwoch

    Zeit Temperatur Niederschläge Wind Luftdruck Luftfeuchtigkeit
    00:00 -8°C° 0 mm 1 m/S 688 mmHg 88%
    01:00 -8°C° 0 mm 1 m/S 687 mmHg 88%
    02:00 -8°C° 0 mm 1 m/S 687 mmHg 87%
    03:00 -8°C° 0 mm 1 m/S 687 mmHg 86%
    04:00 -7°C° 0 mm 1 m/S 687 mmHg 86%
    05:00 -7°C° 0 mm 1 m/S 686 mmHg 85%
    06:00 -7°C° 0 mm 1 m/S 686 mmHg 85%
    07:00 -7°C° 0 mm 1 m/S 686 mmHg 85%
    08:00 -7°C° 0 mm 0 m/S 686 mmHg 84%
    09:00 -6°C° 0 mm 0 m/S 686 mmHg 84%
    10:00 -5°C° 0 mm 0 m/S 686 mmHg 84%
    11:00 -4°C° 0 mm 0 m/S 686 mmHg 82%
    12:00 -3°C° 0 mm 0 m/S 686 mmHg 81%
    13:00 -1°C° 0 mm 1 m/S 686 mmHg 79%
    14:00 -2°C° 0 mm 1 m/S 686 mmHg 83%
    15:00 -2°C° 0 mm 1 m/S 686 mmHg 87%
    16:00 -3°C° 0 mm 1 m/S 686 mmHg 91%
    17:00 -6°C° 0 mm 1 m/S 686 mmHg 92%
    18:00 -7°C° 0 mm 0 m/S 687 mmHg 93%
    19:00 -9°C° 0 mm 0 m/S 687 mmHg 94%
    20:00 -9°C° 0 mm 0 m/S 687 mmHg 94%
    21:00 -9°C° 0 mm 0 m/S 688 mmHg 94%
    22:00 -10°C° 0 mm 1 m/S 688 mmHg 94%
    23:00 -10°C° 0 mm 1 m/S 689 mmHg 94%

    24 Januar, Donnerstag

    Zeit Temperatur Niederschläge Wind Luftdruck Luftfeuchtigkeit
    00:00 -10°C° 0 mm 1 m/S 689 mmHg 93%
    01:00 -10°C° 0 mm 1 m/S 690 mmHg 93%
    02:00 -10°C° 0 mm 1 m/S 690 mmHg 93%
    03:00 -10°C° 0 mm 1 m/S 690 mmHg 93%
    04:00 -10°C° 0 mm 1 m/S 691 mmHg 93%
    05:00 -10°C° 0 mm 1 m/S 691 mmHg 93%
    06:00 -10°C° 0 mm 1 m/S 692 mmHg 93%
    07:00 -10°C° 0 mm 1 m/S 692 mmHg 92%
    08:00 -9°C° 0 mm 1 m/S 693 mmHg 92%
    09:00 -8°C° 0 mm 1 m/S 693 mmHg 91%
    10:00 -7°C° 0 mm 1 m/S 694 mmHg 91%
    11:00 -6°C° 0 mm 1 m/S 694 mmHg 90%
    12:00 -4°C° 0 mm 1 m/S 695 mmHg 89%
    13:00 -3°C° 0 mm 1 m/S 695 mmHg 88%
    14:00 -3°C° 0 mm 1 m/S 695 mmHg 89%
    15:00 -3°C° 0 mm 1 m/S 695 mmHg 90%
    16:00 -3°C° 0 mm 1 m/S 696 mmHg 92%
    17:00 -4°C° 0 mm 1 m/S 696 mmHg 93%
    18:00 -6°C° 0 mm 1 m/S 697 mmHg 94%
    19:00 -6°C° 0 mm 1 m/S 698 mmHg 95%
    20:00 -6°C° 0 mm 1 m/S 698 mmHg 95%
    21:00 -7°C° 0 mm 1 m/S 699 mmHg 95%
    22:00 -7°C° 0 mm 1 m/S 699 mmHg 95%
    23:00 -7°C° 0 mm 1 m/S 699 mmHg 95%

    25 Januar, Freitag

    Zeit Temperatur Niederschläge Wind Luftdruck Luftfeuchtigkeit
    00:00 -8°C° 0 mm 1 m/S 699 mmHg 94%
    01:00 -9°C° 0 mm 1 m/S 699 mmHg 94%
    02:00 -8°C° 0 mm 1 m/S 700 mmHg 94%
    03:00 -9°C° 0 mm 2 m/S 700 mmHg 93%
    04:00 -8°C° 0 mm 2 m/S 700 mmHg 93%
    05:00 -8°C° 0 mm 1 m/S 700 mmHg 93%
    06:00 -9°C° 0 mm 1 m/S 700 mmHg 93%
    07:00 -9°C° 0 mm 1 m/S 700 mmHg 93%
    08:00 -8°C° 0 mm 1 m/S 701 mmHg 92%
    09:00 -7°C° 0 mm 1 m/S 701 mmHg 92%
    10:00 -6°C° 0 mm 1 m/S 701 mmHg 91%
    11:00 -4°C° 0 mm 1 m/S 701 mmHg 90%
    12:00 -4°C° 0 mm 2 m/S 701 mmHg 88%
    13:00 -3°C° 0 mm 2 m/S 701 mmHg 86%
    14:00 -1°C° 0 mm 1 m/S 701 mmHg 88%
    15:00 -1°C° 0 mm 1 m/S 700 mmHg 90%
    16:00 -2°C° 0 mm 1 m/S 700 mmHg 92%
    17:00 -5°C° 0 mm 2 m/S 700 mmHg 92%
    18:00 -6°C° 0 mm 2 m/S 701 mmHg 92%
    19:00 -8°C° 0 mm 2 m/S 701 mmHg 92%
    20:00 -8°C° 0 mm 2 m/S 701 mmHg 91%
    21:00 -8°C° 0 mm 2 m/S 701 mmHg 90%
    22:00 -9°C° 0 mm 3 m/S 701 mmHg 89%
    23:00 -7°C° 0 mm 3 m/S 701 mmHg 86%

    26 Januar, Samstag

    Zeit Temperatur Niederschläge Wind Luftdruck Luftfeuchtigkeit
    00:00 -6°C° 0 mm 3 m/S 701 mmHg 84%
    01:00 -5°C° 0 mm 3 m/S 701 mmHg 81%
    02:00 -4°C° 0.1 mm 4 m/S 700 mmHg 82%
    03:00 -4°C° 0.1 mm 4 m/S 700 mmHg 83%
    04:00 -3°C° 0.1 mm 4 m/S 700 mmHg 84%
    05:00 -3°C° 0.2 mm 4 m/S 699 mmHg 85%
    06:00 -2°C° 0.2 mm 5 m/S 699 mmHg 86%
    07:00 -2°C° 0.2 mm 5 m/S 699 mmHg 87%
    08:00 -1°C° 0.1 mm 4 m/S 698 mmHg 88%
    09:00 -1°C° 0.1 mm 4 m/S 698 mmHg 89%
    10:00 -1°C° 0.1 mm 4 m/S 698 mmHg 90%
    11:00 0°C° 0 mm 4 m/S 697 mmHg 92%
    12:00 0°C° 0 mm 4 m/S 697 mmHg 94%
    13:00 0°C° 0 mm 4 m/S 696 mmHg 96%
    14:00 +1°C° 0.1 mm 3 m/S 695 mmHg 96%
    15:00 +1°C° 0.1 mm 3 m/S 695 mmHg 96%
    16:00 +1°C° 0.1 mm 3 m/S 694 mmHg 96%
    17:00 +2°C° 0.3 mm 2 m/S 694 mmHg 95%
    18:00 +1°C° 0.3 mm 2 m/S 694 mmHg 94%
    19:00 +1°C° 0.3 mm 2 m/S 693 mmHg 93%
    20:00 +1°C° 0.1 mm 2 m/S 693 mmHg 93%
    21:00 +1°C° 0.1 mm 2 m/S 692 mmHg 92%
    22:00 -1°C° 0.1 mm 2 m/S 692 mmHg 92%
    23:00 -1°C° 0 mm 2 m/S 691 mmHg 92%
    Mehr zeigen